KLM91R EHAM-LDSP

Flight info

Callsign KLM91R
Flight time N/A
Altitude 35000
Route EDUPO Z739 MISGO DCT ASBON DCT TUSUK DCT UTABA DCT BEMKI DCT ELMEM DCT DIRAB DCT VESAL DCT PEVAL DCT PUL DCT LOS DCT MINTU DCT SAL
Aircraft B738/M-SDE2E3FGHIRWXY/LB1

Departure

Time 2026-05-05 09:36
Airport Amsterdam Airport Schiphol (EHAM)

Arrival

Time N/A
Airport Split Saint Jerome Airport (LDSP)
Time Latitude Longitude Altitude Speed Heading
2026-05-05 09:00 52.30376 4.76398 3 ft 0 kts 239°
2026-05-05 09:18 52.30377 4.76400 2 ft 1 kts 239°
2026-05-05 09:18 52.30385 4.76421 2 ft 2 kts 227°
2026-05-05 09:18 52.30397 4.76436 2 ft 2 kts 205°
2026-05-05 09:18 52.30411 4.76443 3 ft 2 kts 185°
2026-05-05 09:19 52.30426 4.76441 3 ft 2 kts 165°
2026-05-05 09:19 52.30440 4.76431 4 ft 2 kts 145°
2026-05-05 09:19 52.30447 4.76423 4 ft 0 kts 147°
2026-05-05 09:19 52.30447 4.76422 4 ft 0 kts 148°
2026-05-05 09:22 52.30440 4.76430 4 ft 4 kts 147°
2026-05-05 09:22 52.30386 4.76485 2 ft 12 kts 148°
2026-05-05 09:22 52.30298 4.76516 0 ft 15 kts 222°
2026-05-05 09:22 52.30234 4.76361 1 ft 17 kts 238°
2026-05-05 09:23 52.30161 4.76171 0 ft 22 kts 238°
2026-05-05 09:23 52.30074 4.75948 1 ft 24 kts 239°
2026-05-05 09:23 52.29976 4.75688 0 ft 29 kts 238°
2026-05-05 09:23 52.29872 4.75416 0 ft 24 kts 237°
2026-05-05 09:24 52.29852 4.75173 2 ft 23 kts 310°
2026-05-05 09:24 52.29963 4.74956 3 ft 25 kts 291°
2026-05-05 09:24 52.29979 4.74682 0 ft 21 kts 303°
2026-05-05 09:24 52.30083 4.74496 -5 ft 23 kts 313°
2026-05-05 09:25 52.30201 4.74303 -10 ft 24 kts 314°
2026-05-05 09:25 52.30224 4.74099 -11 ft 19 kts 217°
2026-05-05 09:25 52.30098 4.74042 -11 ft 18 kts 192°
2026-05-05 09:25 52.30000 4.73946 -10 ft 15 kts 233°
2026-05-05 09:26 52.29950 4.73804 -8 ft 13 kts 245°
2026-05-05 09:26 52.29908 4.73641 -6 ft 16 kts 268°
2026-05-05 09:26 52.29915 4.73446 -3 ft 17 kts 274°
2026-05-05 09:26 52.29984 4.73295 -3 ft 19 kts 344°
2026-05-05 09:27 52.30127 4.73301 -3 ft 21 kts
2026-05-05 09:27 52.30287 4.73314 -3 ft 24 kts
2026-05-05 09:27 52.30463 4.73330 -3 ft 26 kts
2026-05-05 09:27 52.30646 4.73347 -6 ft 21 kts
2026-05-05 09:28 52.30787 4.73361 -6 ft 19 kts
2026-05-05 09:28 52.30922 4.73373 -6 ft 20 kts
2026-05-05 09:28 52.31076 4.73388 -5 ft 24 kts
2026-05-05 09:28 52.31257 4.73404 -3 ft 26 kts
2026-05-05 09:29 52.31434 4.73420 -3 ft 24 kts
2026-05-05 09:29 52.31600 4.73436 -3 ft 23 kts
2026-05-05 09:29 52.31755 4.73450 -3 ft 21 kts
2026-05-05 09:29 52.31900 4.73463 -3 ft 20 kts
2026-05-05 09:30 52.32032 4.73426 -3 ft 18 kts 327°
2026-05-05 09:30 52.32131 4.73295 -4 ft 18 kts 320°
2026-05-05 09:30 52.32228 4.73159 -6 ft 18 kts 319°
2026-05-05 09:30 52.32321 4.73026 -6 ft 17 kts 319°
2026-05-05 09:31 52.32411 4.72899 -6 ft 18 kts 319°
2026-05-05 09:31 52.32517 4.72751 -5 ft 22 kts 319°
2026-05-05 09:31 52.32634 4.72586 -3 ft 21 kts 319°
2026-05-05 09:31 52.32734 4.72418 -3 ft 20 kts 311°
2026-05-05 09:32 52.32822 4.72253 -3 ft 18 kts 307°
2026-05-05 09:32 52.32838 4.72057 -3 ft 17 kts 267°
2026-05-05 09:32 52.32866 4.71914 -3 ft 10 kts 310°
2026-05-05 09:32 52.32916 4.71823 -5 ft 12 kts 312°
2026-05-05 09:33 52.32982 4.71703 -6 ft 16 kts 311°
2026-05-05 09:33 52.33055 4.71548 -6 ft 17 kts 297°
2026-05-05 09:33 52.33055 4.71380 -6 ft 15 kts 225°
2026-05-05 09:33 52.32978 4.71268 -6 ft 15 kts 221°
2026-05-05 09:34 52.32894 4.71143 -6 ft 17 kts 224°
2026-05-05 09:34 52.32865 4.70965 -6 ft 16 kts 277°
2026-05-05 09:34 52.32912 4.70890 -6 ft 9 kts
2026-05-05 09:34 52.32926 4.70892 -6 ft 0 kts
2026-05-05 09:35 52.32935 4.70892 -6 ft 5 kts
2026-05-05 09:36 52.33172 4.70917 -6 ft 69 kts
2026-05-05 09:36 52.33872 4.70979 -6 ft 130 kts
2026-05-05 09:36 52.34952 4.71070 47 ft 173 kts
2026-05-05 09:36 52.36188 4.71189 643 ft 180 kts
2026-05-05 09:37 52.37396 4.71268 1398 ft 181 kts
2026-05-05 09:37 52.38622 4.71407 1649 ft 184 kts
2026-05-05 09:37 52.39956 4.71572 1916 ft 197 kts
2026-05-05 09:37 52.41392 4.71733 2255 ft 217 kts
2026-05-05 09:38 52.42896 4.72307 2684 ft 230 kts 25°
2026-05-05 09:38 52.44334 4.73614 3119 ft 247 kts 32°
2026-05-05 09:38 52.45799 4.75102 3943 ft 249 kts 32°
2026-05-05 09:38 52.47204 4.76797 4634 ft 255 kts 43°
2026-05-05 09:39 52.48215 4.79167 5301 ft 264 kts 70°
2026-05-05 09:39 52.48521 4.82133 6029 ft 269 kts 86°
2026-05-05 09:39 52.48572 4.85211 6692 ft 275 kts 88°
2026-05-05 09:39 52.48556 4.88332 7400 ft 279 kts 95°
2026-05-05 09:40 52.48143 4.91385 8349 ft 270 kts 111°
2026-05-05 09:40 52.47099 4.93787 9310 ft 253 kts 138°
2026-05-05 09:40 52.45719 4.95383 10023 ft 242 kts 148°
2026-05-05 09:40 52.44346 4.96788 10612 ft 231 kts 147°
2026-05-05 09:41 52.43004 4.98229 10975 ft 231 kts 146°
2026-05-05 09:41 52.41683 4.99719 11313 ft 232 kts 144°
2026-05-05 09:41 52.40346 5.01261 11640 ft 233 kts 144°
2026-05-05 09:41 52.39026 5.02793 11940 ft 235 kts 144°
2026-05-05 09:42 52.37694 5.04336 12222 ft 236 kts 144°
2026-05-05 09:42 52.36357 5.05882 12531 ft 236 kts 144°
2026-05-05 09:42 52.35012 5.07435 12781 ft 239 kts 144°
2026-05-05 09:42 52.33663 5.09034 13061 ft 239 kts 140°
2026-05-05 09:43 52.32475 5.10884 13352 ft 239 kts 131°
2026-05-05 09:43 52.31378 5.12957 13495 ft 245 kts 128°
2026-05-05 09:43 52.30861 5.13975 13620 ft 245 kts 129°
2026-05-05 09:43 52.29903 5.15784 13653 ft 254 kts 130°
2026-05-05 09:44 52.28693 5.17981 13619 ft 264 kts 131°
2026-05-05 09:44 52.27452 5.20213 13574 ft 273 kts 131°
2026-05-05 09:44 52.26163 5.22542 13525 ft 281 kts 131°
2026-05-05 09:44 52.24844 5.24945 13460 ft 287 kts 130°
2026-05-05 09:45 52.23586 5.27540 13409 ft 292 kts 126°
2026-05-05 09:45 52.22406 5.30216 13347 ft 296 kts 124°
2026-05-05 09:45 52.21216 5.33012 13347 ft 297 kts 123°
2026-05-05 09:45 52.20043 5.35760 13361 ft 297 kts 123°
2026-05-05 09:46 52.18862 5.38502 13396 ft 297 kts 124°
2026-05-05 09:46 52.17676 5.41239 13426 ft 297 kts 124°
2026-05-05 09:46 52.16482 5.43985 13449 ft 297 kts 124°
2026-05-05 09:46 52.16165 5.44712 13467 ft 296 kts 124°
2026-05-05 09:47 52.14974 5.47444 13500 ft 296 kts 124°
2026-05-05 09:47 52.13787 5.50162 13796 ft 286 kts 124°
2026-05-05 09:47 52.12656 5.52743 14156 ft 276 kts 124°
2026-05-05 09:47 52.11566 5.55231 14548 ft 265 kts 124°
2026-05-05 09:48 52.10521 5.57608 14992 ft 254 kts 124°
2026-05-05 09:48 52.09526 5.59875 15457 ft 242 kts 124°
2026-05-05 09:48 52.08581 5.62029 15860 ft 232 kts 125°
2026-05-05 09:48 52.07652 5.64145 16102 ft 231 kts 125°
2026-05-05 09:49 52.06723 5.66259 16312 ft 230 kts 126°
2026-05-05 09:49 52.05763 5.68388 16325 ft 235 kts 129°
2026-05-05 09:49 52.04715 5.70399 16307 ft 232 kts 132°
2026-05-05 09:49 52.03648 5.72328 16303 ft 230 kts 132°
2026-05-05 09:50 52.02575 5.74285 16307 ft 231 kts 131°
2026-05-05 09:50 52.01517 5.76243 16306 ft 231 kts 131°
2026-05-05 09:50 52.00482 5.78209 16295 ft 231 kts 128°
2026-05-05 09:50 51.99483 5.80280 16272 ft 230 kts 127°
2026-05-05 09:51 51.98894 5.82663 16035 ft 236 kts 95°